Flag for Germany Weather past 2 weeks in Cloppenburg, Lower Saxony, Germany

Now
59 °F

Cool.


Feels Like: 60 °F
Forecast: 49 / 60 °F
Wind: 3 mph from West

Location: Meppen-Mil

Current Time: Sep 21, 2014 at 2:27:56 AM

Latest Report: Sep 21, 2014 at 1:20 AM


Visibility: 0 mi

Pressure: 29.95 "Hg

Humidity: 94%

Dew point: 57 °F

Location of CloppenburgLocation

Historic Weather in Cloppenburg — Graph

°F

Cloppenburg temperature yesterday

Maximum temperature yesterday: 75 °F (at 2:20 PM)
Minimum temperature yesterday: 57 °F (at 1:20 AM)
Average temperature yesterday: 61 °F

Past Weeks' High & Low Weather Summary

 TemperatureHumidityPressure
High79 °F (Sep 18, 4:20 PM)100% (Sep 8, 7:20 AM)30.27 "Hg (Sep 8, 7:20 AM)
Low48 °F (Sep 15, 4:20 AM)45% (Sep 18, 4:20 PM)29.83 "Hg (Sep 18, 4:20 PM)
Average61 °F81%30.04 "Hg
* Reported Sep 6 1:20 AM — Sep 21 1:20 AM, Cloppenburg, Weather by CustomWeather, © 2014

Note: Actual official high and low records may vary slightly from our data, if they occured in-between our weather recording intervals... More about our weather records

Advertising

Cloppenburg weather history for previous 24 hours

 ConditionsComfort  
Time TempWeatherWind HumidityBarometerVisibility
1:20 AM
Sep 21
59 °FCool.3 mph94%29.95 "Hg1 mi
12:20 AM57 °FCool.3 mph94%29.95 "Hg0 mi
11:20 PM
Sep 20
57 °FCool.5 mph94%29.95 "Hg2 mi
10:20 PM57 °FCool.3 mph94%29.95 "Hg1 mi
9:20 PM61 °FCool.3 mph88%29.95 "Hg4 mi
8:20 PM61 °FCool.5 mph94%29.95 "Hg4 mi
7:20 PM61 °FCool.5 mph94%29.92 "Hg3 mi
3:20 PM75 °FMild.3 mph57%29.92 "Hg4 mi
2:20 PM75 °FMild.3 mph57%29.92 "Hg4 mi
1:20 PM70 °FMild.5 mph73%29.92 "Hg3 mi
12:20 PM70 °FMild.3 mph73%29.95 "Hg3 mi
11:20 AM63 °FMild.2 mph100%29.92 "Hg1 mi
10:20 AM61 °FCool.2 mph94%29.92 "Hg0 mi
9:20 AM59 °FCool.1 mph94%29.92 "Hg0 mi
8:20 AM57 °FCool.2 mph94%29.92 "Hg0 mi
7:20 AM57 °FCool.2 mph94%29.92 "Hg0 mi
6:20 AM57 °FCool.2 mph100%29.92 "Hg0 mi
5:20 AM57 °FCool.1 mph94%29.89 "Hg0 mi
4:20 AM57 °FCool.2 mph100%29.89 "Hg0 mi
3:20 AM57 °FCool.1 mph100%29.89 "Hg0 mi
2:20 AM57 °FCool.2 mph94%29.92 "Hg0 mi
Weather by CustomWeather, © 2014

See weather overviewHow to use our weather pages